Location: Boda
(47.1872°N, 9.5454°E)
Time: 09:43:16
(UTC+00:00)

Cosmos 2219 - Pass Details

Date: 14 May 2021
Orbit: 832 x 861 km, 71.1° (Epoch: 16 June)

Event Time Altitude Azimuth Distance (km) Brightness Sun altitude
Rises 00:57:51 0° 331° (NNW) 3,422 6.9 -20.5°
Reaches altitude 10° 01:00:19 10° 330° (NNW) 2,487 6.1 -20.3°
Maximum altitude 01:06:01 77° 246° (WSW) 882 3.1 -19.8°
Enters shadow 01:09:29 25° 164° (SSE) 1,666 4.3 -19.6°
